Weather History for Brooksville, FL

Change the Weather History Date:

Thursday, February 7, 2013

  Actual Average Record
Temperature  
Mean Temperature 72 °F -  
Max Temperature 81 °F 69 °F 81 °F (2013)
Min Temperature 62 °F 44 °F 28 °F (2009)
Cooling Degree Days 6    
Growing Degree Days 22 (Base 50)    
Moisture  
Dew Point 61 °F    
Average Humidity 75    
Maximum Humidity 93    
Minimum Humidity 44    
Precipitation  
Precipitation 0.09 in - - ()
Sea Level Pressure  
Sea Level Pressure 29.99 in    
Wind  
Wind Speed 9 mph (SSE)    
Max Wind Speed 22 mph    
Max Gust Speed 31 mph    
Visibility 10 miles    
Events Rain    
Averages and records for this station are not official NWS values.
T = Trace of Precipitation, MM = Missing Value Source: NWS Daily Summary

Daily Weather History Graph

Daily Weather History Graph

Search for Another Location

Airport:

Trip Planner

Search our weather history database for the weather conditions in past years. The results will help you decide how hot, cold, wet, or windy it might be!

Date:

Astronomy

Feb. 07, 2013 Rise Set
Actual Time 7:13 AM EST 6:14 PM EST
Civil Twilight 6:49 AM EST 6:38 PM EST
Nautical Twilight 6:21 AM EST 7:06 PM EST
Astronomical Twilight 5:53 AM EST 7:34 PM EST
Moon 4:44 AM EST (2/7) 3:44 PM EST (2/7)
Length of Visible Light 11h 49m
Length of Day
11h 00m
Waning Crescent, 9% of the Moon is Illuminated
Feb 7
Waning Crescent
Feb 10
New
Feb 17
First Quarter
Feb 25
Full
Mar 4
Last Quarter

Hourly Weather History & Observations

Time (EST) Temp. Heat Index Dew Point Humidity Pressure Visibility Wind Dir Wind Speed Gust Speed Precip Events Conditions
12:53 AM 64.9 °F - 61.0 °F 87% 30.09 in 10.0 mi East 4.6 mph - N/A   Scattered Clouds
1:53 AM 63.0 °F - 61.0 °F 93% 30.08 in 10.0 mi East 4.6 mph - N/A   Clear
2:53 AM 64.0 °F - 61.0 °F 90% 30.06 in 10.0 mi East 6.9 mph - N/A   Clear
3:53 AM 64.0 °F - 60.1 °F 87% 30.05 in 10.0 mi SE 6.9 mph - N/A   Clear
4:53 AM 62.1 °F - 59.0 °F 90% 30.06 in 10.0 mi ESE 5.8 mph - N/A   Clear
5:53 AM 62.1 °F - 60.1 °F 93% 30.06 in 10.0 mi ESE 3.5 mph - N/A   Mostly Cloudy
6:53 AM 62.1 °F - 59.0 °F 90% 30.07 in 10.0 mi SE 5.8 mph - N/A   Partly Cloudy
7:53 AM 64.0 °F - 60.1 °F 87% 30.07 in 10.0 mi SE 5.8 mph - N/A   Partly Cloudy
8:53 AM 66.9 °F - 62.1 °F 84% 30.06 in 10.0 mi SE 9.2 mph - N/A   Clear
9:53 AM 73.0 °F - 62.1 °F 68% 30.06 in 3.0 mi North - - 0.03 in   Haze
10:53 AM 77.0 °F - 61.0 °F 58% 30.03 in 10.0 mi North - - N/A   Clear
11:53 AM 80.1 °F 80.7 °F 59.0 °F 48% 30.01 in 10.0 mi South 16.1 mph 24.2 mph N/A   Partly Cloudy
12:53 PM 80.1 °F 80.6 °F 57.9 °F 47% 29.99 in 10.0 mi South 17.3 mph 24.2 mph N/A   Scattered Clouds
1:53 PM 81.0 °F 81.0 °F 57.0 °F 44% 29.94 in 10.0 mi South 17.3 mph 28.8 mph N/A   Mostly Cloudy
2:53 PM 81.0 °F 81.0 °F 57.0 °F 44% 29.92 in 10.0 mi South 15.0 mph 31.1 mph N/A   Clear
3:53 PM 79.0 °F - 57.9 °F 48% 29.91 in 10.0 mi South 17.3 mph 26.5 mph 0.00 in   Scattered Clouds
4:53 PM 73.0 °F - 60.1 °F 64% 29.89 in 10.0 mi South 21.9 mph 29.9 mph 0.01 in Rain Light Rain
5:53 PM 72.0 °F - 64.0 °F 76% 29.91 in 10.0 mi South 18.4 mph 25.3 mph 0.00 in Rain Light Rain
6:53 PM 70.0 °F - 66.0 °F 87% 29.91 in 10.0 mi South 16.1 mph - 0.05 in   Mostly Cloudy
7:53 PM 71.1 °F - 64.9 °F 81% 29.92 in 10.0 mi South 16.1 mph 25.3 mph N/A   Partly Cloudy
8:53 PM 70.0 °F - 64.9 °F 84% 29.92 in 10.0 mi SSW 12.7 mph - N/A   Clear
9:53 PM 68.0 °F - 64.0 °F 87% 29.91 in 10.0 mi SSW 5.8 mph - N/A   Clear
10:53 PM 69.1 °F - 63.0 °F 81% 29.93 in 10.0 mi SW 9.2 mph - N/A   Clear
11:53 PM 70.0 °F - 64.9 °F 84% 29.92 in 10.0 mi SW 9.2 mph - N/A   Clear